Location: Orinda
(37.8771°N, 122.1797°W)
Time: 10:04:55
(UTC+00:00)

Cosmos 2333 Rocket - Pass Details

Date: 21 October 2019
Orbit: 838 x 863 km, 70.8° (Epoch: 12 November)

Event Time Altitude Azimuth Distance (km) Brightness Sun altitude
Exits shadow 12:33:18 14° 334° (NNW) 2,199 4.1 -22.3°
Drops below altitude 10° 12:34:47 10° 347° (NNW) 2,481 4.5 -22.0°
Sets 12:38:12 0° 8° (N) 3,426 5.5 -21.3°
